| time (UTC) | temp F | wind direction | speed MPH | gust MPH | rain 1hr in | rain 24hr in | rain mn in | humidity % | barometer mb |
| 20260503052030 | 56 | 176 | 2.0 | 6.0 | 0.00 | 0.00 | 0.00 | 72 | 1022.1 |
| 20260503051529 | 57 | 174 | 2.0 | 5.0 | 0.00 | 0.00 | 0.00 | 72 | 1022.0 |
| 20260503051028 | 57 | 182 | 3.0 | 5.0 | 0.00 | 0.00 | 0.00 | 71 | 1021.9 |
| 20260503050531 | 57 | 182 | 4.0 | 6.0 | 0.00 | 0.00 | 0.00 | 71 | 1021.9 |
| 20260503050028 | 57 | 172 | 4.0 | 6.0 | 0.00 | 0.00 | 0.00 | 71 | 1021.9 |
| 20260503045527 | 57 | 184 | 4.0 | 5.0 | 0.00 | 0.00 | 0.00 | 70 | 1021.9 |
| 20260503045027 | 58 | 169 | 4.0 | 6.0 | 0.00 | 0.00 | 0.00 | 70 | 1021.9 |
| 20260503044536 | 58 | 167 | 4.0 | 7.0 | 0.00 | 0.00 | 0.00 | 70 | 1022.0 |
| 20260503044025 | 58 | 175 | 4.0 | 7.0 | 0.00 | 0.00 | 0.00 | 70 | 1021.9 |
| 20260503043525 | 58 | 161 | 4.0 | 8.0 | 0.00 | 0.00 | 0.00 | 69 | 1021.9 |
| 20260503043028 | 58 | 171 | 5.0 | 8.0 | 0.00 | 0.00 | 0.00 | 70 | 1021.9 |
| 20260503042526 | 58 | 156 | 4.0 | 7.0 | 0.00 | 0.00 | 0.00 | 69 | 1022.0 |
| 20260503042026 | 58 | 157 | 4.0 | 7.0 | 0.00 | 0.00 | 0.00 | 70 | 1021.9 |
| 20260503041626 | 58 | 148 | 4.0 | 6.0 | 0.00 | 0.00 | 0.00 | 69 | 1021.9 |
| 20260503041025 | 58 | 107 | 2.0 | 5.0 | 0.00 | 0.00 | 0.00 | 69 | 1021.6 |
| 20260503040528 | 58 | 91 | 3.0 | 5.0 | 0.00 | 0.00 | 0.00 | 69 | 1021.7 |
| 20260503040025 | 58 | 98 | 4.0 | 6.0 | 0.00 | 0.00 | 0.00 | 69 | 1021.7 |
| 20260503035524 | 58 | 113 | 3.0 | 6.0 | 0.00 | 0.00 | 0.00 | 68 | 1021.6 |
| 20260503035024 | 57 | 103 | 4.0 | 6.0 | 0.00 | 0.00 | 0.00 | 68 | 1021.7 |
| 20260503034524 | 57 | 97 | 3.0 | 6.0 | 0.00 | 0.00 | 0.00 | 69 | 1021.7 |
| 20260503034023 | 57 | 92 | 4.0 | 6.0 | 0.00 | 0.00 | 0.00 | 69 | 1021.6 |
| 20260503033523 | 57 | 96 | 3.0 | 4.0 | 0.00 | 0.00 | 0.00 | 69 | 1021.6 |
| 20260503033023 | 57 | 95 | 3.0 | 5.0 | 0.00 | 0.00 | 0.00 | 69 | 1021.4 |
| 20260503032523 | 57 | 93 | 4.0 | 5.0 | 0.00 | 0.00 | 0.00 | 70 | 1021.3 |
| 20260503032023 | 57 | 89 | 4.0 | 5.0 | 0.00 | 0.00 | 0.00 | 70 | 1021.2 |
| 20260503031523 | 57 | 89 | 4.0 | 5.0 | 0.00 | 0.00 | 0.00 | 70 | 1021.2 |
| 20260503031023 | 57 | 90 | 4.0 | 5.0 | 0.00 | 0.00 | 0.00 | 70 | 1021.1 |
| 20260503030522 | 58 | 82 | 4.0 | 6.0 | 0.00 | 0.00 | 0.00 | 70 | 1021.1 |
| 20260503030023 | 58 | 87 | 4.0 | 6.0 | 0.00 | 0.00 | 0.00 | 69 | 1021.1 |
| 20260503025522 | 58 | 92 | 4.0 | 6.0 | 0.00 | 0.00 | 0.00 | 69 | 1021.1 |
| 20260503025021 | 58 | 90 | 4.0 | 6.0 | 0.00 | 0.00 | 0.00 | 69 | 1021.1 |
| 20260503024521 | 58 | 83 | 5.0 | 5.0 | 0.00 | 0.00 | 0.00 | 69 | 1020.9 |
| 20260503024021 | 58 | 85 | 4.0 | 5.0 | 0.00 | 0.00 | 0.00 | 69 | 1020.9 |
| 20260503023524 | 58 | 92 | 4.0 | 5.0 | 0.00 | 0.00 | 0.00 | 69 | 1020.9 |
| 20260503023020 | 58 | 76 | 4.0 | 5.0 | 0.00 | 0.00 | 0.00 | 69 | 1020.8 |
| 20260503022520 | 59 | 75 | 4.0 | 5.0 | 0.00 | 0.00 | 0.00 | 69 | 1020.9 |
| 20260503022022 | 59 | 76 | 4.0 | 6.0 | 0.00 | 0.00 | 0.00 | 69 | 1020.8 |
| 20260503021523 | 59 | 75 | 4.0 | 6.0 | 0.00 | 0.00 | 0.00 | 69 | 1020.7 |
| 20260503021020 | 59 | 73 | 4.0 | 6.0 | 0.00 | 0.00 | 0.00 | 69 | 1020.6 |
| 20260503020520 | 59 | 69 | 4.0 | 4.0 | 0.00 | 0.00 | 0.00 | 68 | 1020.7 |
| 20260503020020 | 60 | 74 | 3.0 | 4.0 | 0.00 | 0.00 | 0.00 | 68 | 1020.6 |
| 20260503015521 | 60 | 78 | 3.0 | 4.0 | 0.00 | 0.00 | 0.00 | 67 | 1020.6 |
| 20260503015019 | 60 | 78 | 3.0 | 4.0 | 0.00 | 0.00 | 0.00 | 67 | 1020.5 |
| 20260503014519 | 60 | 79 | 3.0 | 6.0 | 0.00 | 0.00 | 0.00 | 67 | 1020.4 |
| 20260503014019 | 61 | 82 | 3.0 | 6.0 | 0.00 | 0.00 | 0.00 | 66 | 1020.4 |
| 20260503013519 | 61 | 77 | 5.0 | 6.0 | 0.00 | 0.00 | 0.00 | 66 | 1020.3 |
| 20260503013033 | 61 | 71 | 4.0 | 6.0 | 0.00 | 0.00 | 0.00 | 67 | 1020.2 |
| 20260503012519 | 62 | 76 | 3.0 | 5.0 | 0.00 | 0.00 | 0.00 | 65 | 1020.1 |
| 20260503012019 | 62 | 75 | 3.0 | 4.0 | 0.00 | 0.00 | 0.00 | 64 | 1020.0 |
| 20260503011518 | 63 | 70 | 3.0 | 4.0 | 0.00 | 0.00 | 0.00 | 63 | 1019.9 |
| 20260503011018 | 63 | 74 | 3.0 | 4.0 | 0.00 | 0.00 | 0.00 | 62 | 1019.9 |
| 20260503010523 | 64 | 69 | 3.0 | 5.0 | 0.00 | 0.00 | 0.00 | 62 | 1019.9 |
| 20260503010022 | 64 | 67 | 3.0 | 5.0 | 0.00 | 0.00 | 0.00 | 62 | 1019.9 |
| 20260503005518 | 64 | 65 | 2.0 | 5.0 | 0.00 | 0.00 | 0.00 | 60 | 1019.8 |
| 20260503005018 | 65 | 69 | 3.0 | 7.0 | 0.00 | 0.00 | 0.00 | 59 | 1019.8 |
| 20260503004517 | 65 | 72 | 4.0 | 7.0 | 0.00 | 0.00 | 0.00 | 58 | 1019.7 |
| 20260503004021 | 65 | 80 | 4.0 | 8.0 | 0.00 | 0.00 | 0.00 | 60 | 1019.6 |
| 20260503003517 | 66 | 74 | 4.0 | 6.0 | 0.00 | 0.00 | 0.00 | 58 | 1019.6 |
| 20260503003019 | 66 | 72 | 4.0 | 6.0 | 0.00 | 0.00 | 0.00 | 57 | 1019.6 |
| 20260503002517 | 67 | 69 | 4.0 | 7.0 | 0.00 | 0.00 | 0.00 | 55 | 1019.6 |
| 20260503002017 | 67 | 63 | 4.0 | 10.0 | 0.00 | 0.00 | 0.00 | 54 | 1019.6 |
| 20260503001517 | 68 | 42 | 5.0 | 11.0 | 0.00 | 0.00 | 0.00 | 53 | 1019.5 |
| 20260503001016 | 69 | 59 | 7.0 | 11.0 | 0.00 | 0.00 | 0.00 | 52 | 1019.5 |
| 20260503000520 | 69 | 84 | 6.0 | 10.0 | 0.00 | 0.00 | 0.00 | 52 | 1019.6 |
| 20260503000017 | 69 | 86 | 7.0 | 12.0 | 0.00 | 0.00 | 0.00 | 51 | 1019.6 |
| 20260502235515 | 70 | 83 | 7.0 | 12.0 | 0.00 | 0.00 | 0.00 | 51 | 1019.5 |
| 20260502235015 | 69 | 82 | 5.0 | 10.0 | 0.00 | 0.00 | 0.00 | 52 | 1019.6 |
| 20260502234515 | 69 | 105 | 4.0 | 9.0 | 0.00 | 0.00 | 0.00 | 51 | 1019.6 |
| 20260502234015 | 68 | 69 | 5.0 | 9.0 | 0.00 | 0.00 | 0.00 | 52 | 1019.7 |
| 20260502233514 | 68 | 87 | 2.0 | 8.0 | 0.00 | 0.00 | 0.00 | 51 | 1019.7 |
| 20260502233028 | 69 | 76 | 4.0 | 8.0 | 0.00 | 0.00 | 0.00 | 52 | 1019.8 |
| 20260502232514 | 69 | 90 | 2.0 | 9.0 | 0.00 | 0.00 | 0.00 | 53 | 1019.7 |
| 20260502232013 | 69 | 102 | 3.0 | 12.0 | 0.00 | 0.00 | 0.00 | 51 | 1019.7 |
| 20260502231513 | 70 | 68 | 4.0 | 12.0 | 0.00 | 0.00 | 0.00 | 50 | 1019.7 |
| 20260502231115 | 71 | 68 | 7.0 | 12.0 | 0.00 | 0.00 | 0.00 | 49 | 1019.8 |
| 20260502230513 | 71 | 100 | 5.0 | 8.0 | 0.00 | 0.00 | 0.00 | 51 | 1019.8 |
| 20260502230012 | 70 | 86 | 4.0 | 10.0 | 0.00 | 0.00 | 0.00 | 51 | 1019.9 |
| 20260502225511 | 70 | 83 | 6.0 | 10.0 | 0.00 | 0.00 | 0.00 | 53 | 1019.8 |
| 20260502225011 | 70 | 37 | 3.0 | 10.0 | 0.00 | 0.00 | 0.00 | 50 | 1019.8 |
| 20260502224511 | 71 | 71 | 5.0 | 10.0 | 0.00 | 0.00 | 0.00 | 48 | 1019.8 |
| 20260502224013 | 71 | 64 | 4.0 | 12.0 | 0.00 | 0.00 | 0.00 | 47 | 1019.8 |
| 20260502223511 | 71 | 28 | 8.0 | 13.0 | 0.00 | 0.00 | 0.00 | 49 | 1019.9 |
| 20260502223011 | 71 | 63 | 8.0 | 13.0 | 0.00 | 0.00 | 0.00 | 48 | 1019.9 |
| 20260502222510 | 71 | 49 | 9.0 | 13.0 | 0.00 | 0.00 | 0.00 | 48 | 1019.8 |
| 20260502222010 | 71 | 73 | 5.0 | 11.0 | 0.00 | 0.00 | 0.00 | 49 | 1019.9 |
| 20260502221514 | 70 | 70 | 4.0 | 12.0 | 0.00 | 0.00 | 0.00 | 50 | 1019.9 |
| 20260502221008 | 70 | 65 | 9.0 | 12.0 | 0.00 | 0.00 | 0.00 | 49 | 1020.0 |
| 20260502220508 | 70 | 55 | 4.0 | 14.0 | 0.00 | 0.00 | 0.00 | 47 | 1020.0 |
| 20260502220008 | 70 | 32 | 7.0 | 14.0 | 0.00 | 0.00 | 0.00 | 49 | 1020.1 |
| 20260502215510 | 71 | 42 | 10.0 | 14.0 | 0.00 | 0.01 | 0.00 | 52 | 1020.0 |
| 20260502215007 | 70 | 319 | 5.0 | 13.0 | 0.00 | 0.01 | 0.00 | 50 | 1019.9 |
| 20260502214506 | 70 | 32 | 7.0 | 12.0 | 0.00 | 0.01 | 0.00 | 50 | 1020.0 |
| 20260502214007 | 70 | 29 | 2.0 | 14.0 | 0.00 | 0.01 | 0.00 | 50 | 1020.1 |
| 20260502213507 | 70 | 68 | 9.0 | 14.0 | 0.00 | 0.01 | 0.00 | 50 | 1020.2 |
| 20260502213006 | 70 | 90 | 7.0 | 13.0 | 0.00 | 0.01 | 0.00 | 50 | 1020.3 |
| 20260502212506 | 69 | 75 | 7.0 | 15.0 | 0.00 | 0.01 | 0.00 | 51 | 1020.3 |
| 20260502212008 | 70 | 59 | 7.0 | 17.0 | 0.00 | 0.01 | 0.00 | 53 | 1020.3 |
| 20260502211507 | 70 | 72 | 6.0 | 17.0 | 0.00 | 0.01 | 0.00 | 52 | 1020.3 |
| 20260502211004 | 71 | 72 | 4.0 | 13.0 | 0.00 | 0.01 | 0.00 | 52 | 1020.5 |
| 20260502210505 | 71 | 41 | 8.0 | 13.0 | 0.00 | 0.01 | 0.00 | 52 | 1020.5 |
| 20260502210007 | 70 | 82 | 8.0 | 13.0 | 0.00 | 0.01 | 0.00 | 52 | 1020.6 |
| 20260502205503 | 70 | 39 | 6.0 | 18.0 | 0.00 | 0.02 | 0.00 | 55 | 1020.6 |
| 20260502205002 | 70 | 82 | 10.0 | 18.0 | 0.00 | 0.02 | 0.00 | 53 | 1020.6 |
| 20260502204502 | 69 | 54 | 4.0 | 14.0 | 0.00 | 0.02 | 0.00 | 54 | 1020.7 |
| 20260502204002 | 70 | 16 | 10.0 | 16.0 | 0.00 | 0.02 | 0.00 | 53 | 1020.8 |
| 20260502203504 | 70 | 17 | 9.0 | 16.0 | 0.00 | 0.02 | 0.00 | 53 | 1021.0 |
| 20260502203059 | 70 | 54 | 9.0 | 15.0 | 0.00 | 0.02 | 0.00 | 54 | 1020.9 |
| 20260502202558 | 69 | 107 | 6.0 | 15.0 | 0.00 | 0.02 | 0.00 | 55 | 1021.0 |
| 20260502202058 | 69 | 85 | 7.0 | 15.0 | 0.00 | 0.02 | 0.00 | 53 | 1021.1 |
| 20260502201600 | 69 | 66 | 9.0 | 15.0 | 0.00 | 0.02 | 0.00 | 54 | 1021.2 |
| 20260502201058 | 68 | 28 | 6.0 | 16.0 | 0.00 | 0.02 | 0.00 | 56 | 1021.2 |
| 20260502200558 | 68 | 40 | 9.0 | 17.0 | 0.00 | 0.02 | 0.00 | 56 | 1021.3 |
| 20260502200100 | 69 | 60 | 8.0 | 17.0 | 0.00 | 0.02 | 0.00 | 56 | 1021.3 |
| 20260502195556 | 69 | 34 | 7.0 | 14.0 | 0.00 | 0.04 | 0.00 | 54 | 1021.4 |
| 20260502195057 | 69 | 66 | 8.0 | 15.0 | 0.00 | 0.04 | 0.00 | 56 | 1021.5 |
| 20260502194602 | 69 | 50 | 10.0 | 20.0 | 0.00 | 0.04 | 0.00 | 55 | 1021.5 |
| 20260502194055 | 69 | 55 | 11.0 | 20.0 | 0.00 | 0.04 | 0.00 | 57 | 1021.5 |
| 20260502193555 | 68 | 22 | 6.0 | 18.0 | 0.00 | 0.04 | 0.00 | 58 | 1021.5 |
| 20260502193056 | 69 | 53 | 13.0 | 18.0 | 0.00 | 0.04 | 0.00 | 57 | 1021.6 |
| 20260502192558 | 69 | 48 | 8.0 | 17.0 | 0.00 | 0.04 | 0.00 | 56 | 1021.6 |
| 20260502192153 | 68 | 75 | 6.0 | 17.0 | 0.00 | 0.04 | 0.00 | 57 | 1021.6 |
| 20260502191601 | 68 | 98 | 9.0 | 20.0 | 0.00 | 0.04 | 0.00 | 57 | 1021.6 |
| 20260502191053 | 68 | 86 | 12.0 | 20.0 | 0.00 | 0.04 | 0.00 | 58 | 1021.6 |
| 20260502190556 | 68 | 49 | 8.0 | 15.0 | 0.00 | 0.04 | 0.00 | 59 | 1021.5 |
| 20260502190053 | 68 | 66 | 8.0 | 17.0 | 0.00 | 0.04 | 0.00 | 58 | 1021.8 |
| 20260502185551 | 68 | 54 | 9.0 | 17.0 | 0.00 | 0.04 | 0.00 | 60 | 1021.8 |
| 20260502185052 | 68 | 42 | 12.0 | 16.0 | 0.00 | 0.04 | 0.00 | 57 | 1021.8 |
| 20260502184559 | 68 | 56 | 11.0 | 16.0 | 0.00 | 0.04 | 0.00 | 59 | 1021.9 |
| 20260502184050 | 68 | 79 | 8.0 | 20.0 | 0.00 | 0.04 | 0.00 | 58 | 1021.9 |
| 20260502183549 | 68 | 61 | 12.0 | 20.0 | 0.00 | 0.04 | 0.00 | 57 | 1022.0 |
| 20260502183053 | 68 | 84 | 11.0 | 17.0 | 0.00 | 0.04 | 0.00 | 59 | 1022.1 |
| 20260502182548 | 68 | 31 | 10.0 | 15.0 | 0.00 | 0.04 | 0.00 | 59 | 1022.1 |
| 20260502182050 | 68 | 71 | 10.0 | 16.0 | 0.00 | 0.04 | 0.00 | 59 | 1022.2 |
| 20260502181552 | 68 | 84 | 10.0 | 16.0 | 0.00 | 0.04 | 0.00 | 60 | 1022.1 |
| 20260502181046 | 67 | 69 | 9.0 | 14.0 | 0.00 | 0.04 | 0.00 | 59 | 1022.3 |
| 20260502180545 | 67 | 66 | 8.0 | 15.0 | 0.00 | 0.04 | 0.00 | 61 | 1022.4 |
| 20260502164032 | 63 | 88 | 9.0 | 15.0 | 0.00 | 0.21 | 0.00 | 68 | 1023.0 |
| 20260502163531 | 63 | 60 | 9.0 | 15.0 | 0.00 | 0.21 | 0.00 | 68 | 1023.0 |
| 20260502163044 | 63 | 86 | 8.0 | 18.0 | 0.00 | 0.21 | 0.00 | 68 | 1023.0 |
| 20260502162530 | 63 | 79 | 13.0 | 18.0 | 0.00 | 0.21 | 0.00 | 68 | 1023.1 |
| 20260502162029 | 62 | 61 | 9.0 | 20.0 | 0.00 | 0.21 | 0.00 | 68 | 1023.1 |
| 20260502161527 | 62 | 60 | 12.0 | 20.0 | 0.00 | 0.21 | 0.00 | 68 | 1023.2 |
| 20260502161026 | 62 | 94 | 14.0 | 20.0 | 0.00 | 0.21 | 0.00 | 68 | 1023.1 |
| 20260502160526 | 62 | 67 | 13.0 | 17.0 | 0.00 | 0.21 | 0.00 | 68 | 1023.0 |
| 20260502152016 | 60 | 33 | 11.0 | 19.0 | 0.00 | 0.21 | 0.00 | 71 | 1022.9 |
| 20260502151527 | 59 | 53 | 13.0 | 19.0 | 0.00 | 0.21 | 0.00 | 69 | 1022.8 |
| 20260502151014 | 59 | 67 | 12.0 | 19.0 | 0.00 | 0.21 | 0.00 | 71 | 1022.8 |
| 20260502150616 | 59 | 56 | 12.0 | 19.0 | 0.00 | 0.21 | 0.00 | 70 | 1022.8 |
| 20260502130543 | 49 | 32 | 9.0 | 13.0 | 0.00 | 0.28 | 0.00 | 90 | 1021.6 |
| 20260502123544 | 47 | 30 | 7.0 | 12.0 | 0.00 | 0.46 | 0.00 | 94 | 1021.2 |
| 20260502123048 | 46 | 24 | 8.0 | 12.0 | 0.00 | 0.46 | 0.00 | 94 | 1021.1 |
| 20260502122538 | 46 | 28 | 9.0 | 11.0 | 0.00 | 0.46 | 0.00 | 94 | 1021.0 |
| 20260502122038 | 46 | 21 | 8.0 | 12.0 | 0.00 | 0.46 | 0.00 | 95 | 1021.1 |
| 20260502121538 | 46 | 26 | 8.0 | 12.0 | 0.00 | 0.46 | 0.00 | 95 | 1020.9 |
| 20260502121037 | 46 | 28 | 8.0 | 12.0 | 0.00 | 0.46 | 0.00 | 95 | 1020.8 |
| 20260502120537 | 46 | 24 | 9.0 | 12.0 | 0.00 | 0.46 | 0.00 | 95 | 1020.7 |
| 20260502115536 | 46 | 42 | 7.0 | 12.0 | 0.00 | 0.62 | 0.00 | 95 | 1020.4 |
| 20260502115034 | 46 | 29 | 8.0 | 12.0 | 0.00 | 0.62 | 0.00 | 95 | 1020.5 |
| 20260502114534 | 46 | 20 | 8.0 | 12.0 | 0.00 | 0.62 | 0.00 | 95 | 1020.4 |
| 20260502114032 | 46 | 29 | 7.0 | 10.0 | 0.00 | 0.62 | 0.00 | 95 | 1020.4 |
| 20260502113532 | 46 | 42 | 5.0 | 11.0 | 0.00 | 0.62 | 0.00 | 95 | 1020.4 |
| 20260502113032 | 46 | 20 | 5.0 | 11.0 | 0.00 | 0.62 | 0.00 | 95 | 1020.3 |
| 20260502112530 | 46 | 28 | 8.0 | 13.0 | 0.00 | 0.62 | 0.00 | 95 | 1020.3 |
| 20260502112030 | 46 | 17 | 10.0 | 13.0 | 0.00 | 0.62 | 0.00 | 95 | 1020.0 |
| 20260502111529 | 46 | 28 | 9.0 | 12.0 | 0.00 | 0.62 | 0.00 | 95 | 1019.9 |
| 20260502111030 | 46 | 30 | 7.0 | 12.0 | 0.00 | 0.62 | 0.00 | 95 | 1019.8 |
| 20260502110528 | 46 | 34 | 8.0 | 12.0 | 0.00 | 0.62 | 0.00 | 95 | 1019.7 |
| 20260502110028 | 46 | 21 | 8.0 | 12.0 | 0.00 | 0.62 | 0.00 | 95 | 1019.7 |
| 20260502105532 | 46 | 24 | 10.0 | 14.0 | 0.00 | 0.62 | 0.00 | 96 | 1019.7 |
| 20260502105026 | 46 | 28 | 10.0 | 14.0 | 0.00 | 0.62 | 0.00 | 96 | 1019.6 |
| 20260502104531 | 46 | 26 | 8.0 | 12.0 | 0.00 | 0.62 | 0.00 | 96 | 1019.7 |
| 20260502104025 | 46 | 28 | 8.0 | 13.0 | 0.00 | 0.62 | 0.00 | 96 | 1019.7 |
| 20260502103527 | 46 | 39 | 9.0 | 13.0 | 0.00 | 0.62 | 0.00 | 96 | 1019.6 |
| 20260502103025 | 46 | 24 | 10.0 | 12.0 | 0.00 | 0.62 | 0.00 | 96 | 1019.7 |
| 20260502102529 | 46 | 22 | 9.0 | 12.0 | 0.00 | 0.62 | 0.00 | 96 | 1019.6 |
| 20260502102024 | 46 | 36 | 9.0 | 13.0 | 0.00 | 0.62 | 0.00 | 96 | 1019.5 |
| 20260502101523 | 46 | 33 | 10.0 | 13.0 | 0.00 | 0.62 | 0.00 | 96 | 1019.5 |
| 20260502101021 | 46 | 23 | 10.0 | 14.0 | 0.00 | 0.62 | 0.00 | 96 | 1019.5 |
| 20260502100522 | 46 | 19 | 10.0 | 13.0 | 0.00 | 0.62 | 0.00 | 96 | 1019.4 |
| 20260502091515 | 47 | 22 | 7.0 | 11.0 | 0.00 | 0.75 | 0.00 | 96 | 1018.8 |
| 20260502091015 | 47 | 29 | 8.0 | 13.0 | 0.00 | 0.75 | 0.00 | 96 | 1018.8 |
| 20260502090512 | 47 | 33 | 9.0 | 13.0 | 0.00 | 0.75 | 0.00 | 95 | 1018.7 |
| 20260502071058 | 48 | 40 | 12.0 | 19.0 | 0.00 | 0.83 | 0.00 | 94 | 1017.4 |
| 20260502070557 | 48 | 38 | 12.0 | 19.0 | 0.00 | 0.83 | 0.00 | 94 | 1017.5 |
| 20260502070059 | 48 | 19 | 12.0 | 17.0 | 0.00 | 0.83 | 0.00 | 94 | 1017.7 |
| 20260502065555 | 48 | 23 | 10.0 | 17.0 | 0.00 | 0.85 | 0.00 | 93 | 1017.7 |
| 20260502065055 | 48 | 10 | 10.0 | 16.0 | 0.00 | 0.85 | 0.00 | 93 | 1017.7 |
| 20260502064606 | 48 | 32 | 11.0 | 19.0 | 0.00 | 0.85 | 0.00 | 92 | 1017.6 |
| 20260502064053 | 48 | 45 | 13.0 | 19.0 | 0.00 | 0.85 | 0.00 | 92 | 1017.6 |
| 20260502063553 | 48 | 40 | 12.0 | 18.0 | 0.00 | 0.85 | 0.00 | 92 | 1017.5 |
| 20260502063057 | 48 | 44 | 12.0 | 19.0 | 0.00 | 0.85 | 0.00 | 92 | 1017.5 |
| 20260502062555 | 49 | 53 | 14.0 | 19.0 | 0.00 | 0.85 | 0.00 | 92 | 1017.5 |
| 20260502062052 | 49 | 53 | 16.0 | 19.0 | 0.00 | 0.85 | 0.00 | 92 | 1017.4 |
| 20260502061610 | 49 | 50 | 13.0 | 22.0 | 0.00 | 0.85 | 0.00 | 92 | 1017.4 |
| 20260502061050 | 49 | 42 | 13.0 | 22.0 | 0.00 | 0.85 | 0.00 | 92 | 1017.4 |
| 20260502060549 | 49 | 43 | 15.0 | 21.0 | 0.00 | 0.85 | 0.00 | 92 | 1017.4 |
| 20260502060049 | 49 | 24 | 15.0 | 21.0 | 0.00 | 0.85 | 0.00 | 92 | 1017.5 |
| 20260502055548 | 49 | 30 | 15.0 | 22.0 | 0.00 | 0.85 | 0.00 | 92 | 1017.6 |
| 20260502055047 | 49 | 45 | 14.0 | 22.0 | 0.00 | 0.85 | 0.00 | 92 | 1017.5 |
| 20260502054545 | 49 | 38 | 12.0 | 23.0 | 0.00 | 0.85 | 0.00 | 92 | 1017.5 |
| 20260502054044 | 49 | 37 | 16.0 | 23.0 | 0.00 | 0.85 | 0.00 | 92 | 1017.4 |
| 20260502053543 | 49 | 39 | 15.0 | 26.0 | 0.00 | 0.85 | 0.00 | 92 | 1017.4 |
| 20260502053042 | 49 | 34 | 15.0 | 26.0 | 0.00 | 0.85 | 0.00 | 92 | 1017.4 |
| 20260502052542 | 49 | 42 | 15.0 | 22.0 | 0.00 | 0.85 | 0.00 | 92 | 1017.3 |